Tracking 23584 objects as of 3-Aug-2021
HD Live streaming from Space Station
objects crossing your sky now

UNISAT 7

Track UNISAT 7 now!
10-day predictions
UNISAT 7 is classified as:


NORAD ID: 47945
Int'l Code: 2021-022P
Perigee: 540.2 km
Apogee: 566.8 km
Inclination: 97.6 °
Period: 95.6 minutes
Semi major axis: 6924 km
RCS: Unknown
Launch date: March 22, 2021
Source: (ITA)
Launch site: TYURATAM MISSILE AND SPACE COMPLEX (TTMTR)

Uplink (MHz):
Downlink (MHz): 437.425
Beacon (MHz):
Mode: 9600bps FSK
Call sign: II0US
Status: Active

aabbcc
Your satellite tracking list
Your tracking list is empty




NASA's NSSDC Master Catalog

Two Line Element Set (TLE):
1 47945U 21022P   21214.90028149  .00000960  00000-0  68579-4 0  9993
2 47945  97.5535 116.2777 0019178 142.0893 348.5689 15.06684342 19933
Source of the keplerian elements: AFSPC